Index of /img

[ICO]NameLast modifiedSizeDescription

[DIR]Parent Directory  -  
[IMG]loader.gif17-Aug-2014 05:28 2.5K 
[IMG]spinner.gif17-Aug-2014 05:28 15K 
[IMG]bg!.jpg17-Aug-2014 05:28 772K 
[VID]WhatsApp Video 2017-10-08 at 7.17.03 PM.mp413-Oct-2017 13:52 11M 
[VID]VID-20171115-WA0021.mp415-Nov-2017 13:41 11M 
[IMG]vsp-top2a.jpg04-Dec-2017 15:34 120K 
[IMG]farmers.jpg07-Feb-2018 14:07 35K 
[IMG]farm_620.jpg07-Feb-2018 14:10 90K 
[IMG]Humidity.png07-Feb-2018 14:25 9.2K 
[IMG]img-temperature1.png07-Feb-2018 14:28 28K 
[IMG]water-pipe.jpg07-Feb-2018 14:32 198K 
[IMG]lab-tube-leaves.png07-Feb-2018 14:33 9.2K 
[IMG]Session-Titles-for-NHWWC-History.png07-Feb-2018 14:36 145K 
[IMG]spotted-leaf-plant-disease.jpg07-Feb-2018 14:47 115K 
[IMG]service-icon-4.png07-Feb-2018 14:55 6.0K 
[IMG]Data and Predictions.PNG07-Feb-2018 14:56 7.1K 
[IMG]icon-parent-alert.png07-Feb-2018 14:59 3.3K 
[IMG]spices.jpg07-Feb-2018 15:09 153K 
[IMG]Accenture-Farmer.png07-Feb-2018 15:19 44K 
[IMG]Smart_Farming_mini.jpg07-Feb-2018 16:26 96K 
[IMG]icon-climate.png07-Feb-2018 16:35 18K 
[IMG]analytics icon.svg07-Feb-2018 16:37 4.2K 
[IMG]remote crop monitoring icon-01.svg07-Feb-2018 16:38 2.7K 
[IMG]mobile.PNG07-Feb-2018 16:38 2.4K 
[IMG]dashboard.PNG07-Feb-2018 16:40 3.8K 
[IMG]powerpoint-slide-background-templates-download-powerpoint-background-themes-freemicrosoft-office-word-printable.jpg07-Feb-2018 16:54 146K 
[IMG]3.jpg15-Feb-2018 11:09 51K 
[IMG]raju.jpg15-Feb-2018 20:18 69K 
[IMG]neeraja.jpg15-Feb-2018 20:18 12K 
[IMG]srix-innovation.jpeg11-Apr-2018 13:01 1.6M 
[IMG]gtlogo.jpeg09-Jun-2018 22:30 18K 
[IMG]bg_1.jpg12-Jul-2018 11:45 78K 
[IMG]tree2.JPG12-Jul-2018 11:48 116K 
[IMG]tree3.jpg12-Jul-2018 11:48 112K 
[IMG]tree4.jpg12-Jul-2018 11:49 82K 
[   ]RiceDrip.pdf12-Jul-2018 12:00 546K 
[IMG]b-g1.jpg12-Jul-2018 12:00 10K 
[IMG]lk.jpg12-Jul-2018 17:30 17K 
[IMG]bg1.png12-Jul-2018 17:36 609K 
[IMG]alerts_icon.png18-Jul-2018 15:10 1.6K 
[IMG]Prediction.png18-Jul-2018 15:14 3.0K 
[IMG]prasanth.jpg30-Aug-2019 20:33 18K 
[DIR]icons/13-Mar-2020 14:27 -  
[IMG]prashanth.JPG22-May-2020 16:16 44K 

Apache/2.2.15 (CentOS) Server at gramthejus.com Port 80